Back to catalog

PATHFINDER 1

AliveCommunicationsSSO
NORAD 41787·PAYLOAD·🇺🇸 United States

Launched Sep 26, 2016 from Satish Dhawan Space Centre

Loading…

Next Passes (next 24 hours)

TLE

FreshSource: Space-Track

Epoch: Sep 14, 2026, 10:40 UTC

1 41787U 16059E   26257.44504339  .00000430  00000-0  83285-4 0  9999
2 41787  97.8230 252.7228 0026956 282.5171  77.3019 14.67755455532804

Track PATHFINDER 1 in real time with AllMySat

Download on the App Store